Regional Weather Roundup
Issued by NWS

Home | Current Version | Previous Version | Graphics & Text | Print | Product List | Glossary On
Versions: 1 2 3 4 5 6 7 8 9 10 11 12 13 14 15 16 17 18 19 20 21 22 23 24 25 26 27 28 29 30 31 32 33 34 35 36 37 38 39 40 41 42 43 44 45 46 47 48 49 50
000
ASUS43 KIND 260509
RWRIN

WEATHER ROUNDUP FOR INDIANA
NATIONAL WEATHER SERVICE INDIANAPOLIS IN
100 AM EDT SUN APR 26 2015

NOTE: "FAIR" INDICATES FEW OR NO CLOUDS BELOW 12,000 FEET WITH NO
SIGNIFICANT WEATHER AND/OR OBSTRUCTIONS TO VISIBILITY.

* - STATION DOES NOT REPORT WEATHER SUCH AS PRECIPITATION OR FOG.

+ - STATION NOT QUALITY CONTROLLED BY THE NATIONAL WEATHER SERVICE.
    USE DATA WITH CAUTION...ESPECIALLY DEWPOINT AND RELATIVE
    HUMIDITY OBSERVATIONS.

INZ001>003-010>013-019-020-260600-
NORTHWEST INDIANA

CITY           SKY/WX    TMP DP  RH WIND       PRES   REMARKS
GARY /AIRPORT/ CLOUDY    41  33  73 N5        29.85S
KNOX *+        PTCLDY    39  27  60 NE5       29.82S
LA PORTE +     PTCLDY    39  37  94 CALM      29.83S
MICHIGAN CITY+ PTCLDY    36  34  93 CALM      29.84S
MONTICELLO +   CLOUDY    42  36  79 NE8       29.80R
VALPARAISO     PTCLDY    40  36  86 CALM      29.83S

$$

LMZ046-743>745-260600-
SOUTHERN LAKE MICHIGAN

STATION/POSITION TIME  TEMP    WIND        PRES    WAVE
                       AIR SEA DIR/SP/G            HT
                 (UTC) (F)     (DEG/KT/KT) (MB)    (FT)
BURNS HARBOR     0500   41      30/  9/ 10 1010.8S
MICHIGAN CITY    0500   40      30/  4/  5   N/A
5NW MICH CITY    0500   39 45   60/  6/  8   N/A     2

$$

INZ004-005-014>016-021>024-260600-
NORTH CENTRAL INDIANA

CITY           SKY/WX    TMP DP  RH WIND       PRES   REMARKS
GOSHEN         PTCLDY    38  32  79 CALM      29.82R
LOGANSPORT +   CLOUDY    43  32  65 NE6       29.80R
PERU/GRISSOM   CLOUDY    42  33  70 NE12      29.79R
ROCHESTER +    MOCLDY    43  36  75 NE6       29.82S
SOUTH BEND     PTCLDY    38  35  89 N5        29.84R
WARSAW +       MOCLDY    39  34  81 N3        29.82R

$$

INZ006>009-017-018-025>027-260600-
NORTHEAST INDIANA

CITY           SKY/WX    TMP DP  RH WIND       PRES   REMARKS
ANGOLA *+      CLEAR     37  34  87 CALM      29.81S
AUBURN +       PTCLDY    39  30  70 N5        29.83R
FORT WAYNE     CLOUDY    41  34  76 N8        29.81R
HUNTINGTON +   CLOUDY    40  34  77 NE6       29.80R

$$

INZ028-029-035-036-043>045-051>053-260600-
WEST CENTRAL INDIANA

CITY           SKY/WX    TMP DP  RH WIND       PRES   REMARKS
CRAWFORDSVL +  CLOUDY    41  33  74 NE14G21   29.76R
GREENCASTLE +  CLOUDY    43  37  81 NE10      29.75R
LAFAYETTE      CLOUDY    43  35  73 E10       29.78R
TERRE HAUTE    CLOUDY    46  40  79 NE10      29.74R

$$

INZ030>032-037>040-046>048-054>057-064-065-260600-
CENTRAL INDIANA

CITY           SKY/WX    TMP DP  RH WIND       PRES   REMARKS
CP ATTERBURY + CLOUDY    45  41  87 NE13      29.73R
FISHERS *+     CLOUDY    41  37  87 NE6       29.76R
FRANKFORT +    CLOUDY    43  34  70 NE12      29.78S
GREENWOOD *+   CLOUDY    43  37  81 NE12      29.75R
INDIANAPOLIS   CLOUDY    44  37  76 NE13      29.73R
-EAGLE CREEK   CLOUDY    44  37  76 NE12G20   29.75R
KOKOMO *+      CLOUDY    43  30  61 E12       29.79R
MARION +       CLOUDY    41  30  65 NE14      29.79R
MT COMFORT *+  CLOUDY    43  36  75 NE16      29.75R
SHELBYVILLE    CLOUDY    46  39  76 NE13      29.73R
ZIONSVILLE +   CLOUDY    43  34  71 NE8       29.76S

$$

INZ033-034-041-042-049-050-058-059-260600-
EAST CENTRAL INDIANA

CITY           SKY/WX    TMP DP  RH WIND       PRES   REMARKS
MUNCIE         CLOUDY    42  31  64 NE12      29.77R

$$

INZ060-061-067>069-081>083-085>088-260600-
SOUTHWEST INDIANA

CITY           SKY/WX    TMP DP  RH WIND       PRES   REMARKS
EVANSVILLE     CLOUDY    51  48  89 N14       29.67R FOG
HUNTINGBURG *+ CLOUDY    46  45  93 NE8       29.68R
WASHINGTON +   CLOUDY    47  43  88 NE10      29.70R FOG

$$

INZ062-063-066-070>080-084-089>092-260600-
SOUTH CENTRAL AND SOUTHEAST INDIANA

CITY           SKY/WX    TMP DP  RH WIND       PRES   REMARKS
BEDFORD +      CLOUDY    46  41  81 NE9G17    29.70R
BLOOMINGTON    CLOUDY    46  41  82 NE10      29.72R
MADISON *+     CLOUDY    45  41  87 NE10G17   29.69R
NORTH VERNON + CLOUDY    45  45 100 NE10      29.71R
SEYMOUR +      CLOUDY    46  43  87 NE14      29.70R

$$



USA.gov is the U.S. government's official web portal to all federal, state and local government web resources and services.